| time (UTC) | temp F | wind direction | speed MPH | gust MPH | rain 1hr in | rain 24hr in | rain mn in | humidity % | barometer mb |
| 20260906193302 | 76 | 203 | 4.0 | 6.0 | 0.00 | 0.00 | 0.00 | 84 | 1016.6 |
| 20260906192802 | 76 | 209 | 4.0 | 9.0 | 0.00 | 0.00 | 0.00 | 84 | 1016.6 |
| 20260906191809 | 76 | 161 | 1.0 | 12.0 | 0.00 | 0.00 | 0.00 | 85 | 1016.5 |
| 20260906191302 | 76 | 184 | 4.0 | 4.0 | 0.00 | 0.00 | 0.00 | 85 | 1016.6 |
| 20260906190802 | 76 | 88 | 0.0 | 6.0 | 0.00 | 0.00 | 0.00 | 85 | 1016.5 |
| 20260906190302 | 76 | 167 | 4.0 | 5.0 | 0.00 | 0.00 | 0.00 | 85 | 1016.5 |
| 20260906185306 | 76 | 123 | 3.0 | 12.0 | 0.00 | 0.00 | 0.00 | 84 | 1016.7 |
| 20260906184306 | 76 | 108 | 0.0 | 11.0 | 0.00 | 0.00 | 0.00 | 84 | 1016.5 |
| 20260906183807 | 76 | 33 | 3.0 | 7.0 | 0.00 | 0.00 | 0.00 | 84 | 1016.4 |
| 20260906183302 | 76 | 205 | 6.0 | 11.0 | 0.00 | 0.00 | 0.00 | 83 | 1016.4 |
| 20260906182802 | 77 | 168 | 5.0 | 10.0 | 0.00 | 0.00 | 0.00 | 83 | 1016.4 |
| 20260906181802 | 76 | 172 | 0.0 | 7.0 | 0.00 | 0.00 | 0.00 | 84 | 1016.5 |
| 20260906181302 | 76 | 358 | 0.0 | 3.0 | 0.00 | 0.00 | 0.00 | 85 | 1016.7 |
| 20260906180803 | 76 | 146 | 0.0 | 8.0 | 0.00 | 0.00 | 0.00 | 85 | 1016.7 |
| 20260906180302 | 76 | 161 | 8.0 | 12.0 | 0.00 | 0.00 | 0.00 | 83 | 1016.6 |
| 20260906175802 | 76 | 226 | 3.0 | 5.0 | 0.00 | 0.00 | 0.00 | 85 | 1016.6 |
| 20260906175320 | 76 | 201 | 6.0 | 7.0 | 0.00 | 0.00 | 0.00 | 86 | 1016.4 |
| 20260906174301 | 76 | 188 | 0.0 | 7.0 | 0.00 | 0.00 | 0.00 | 86 | 1016.5 |
| 20260906173809 | 76 | 167 | 0.0 | 4.0 | 0.00 | 0.00 | 0.00 | 87 | 1016.6 |
| 20260906173302 | 75 | 135 | 2.0 | 2.0 | 0.00 | 0.00 | 0.00 | 87 | 1016.8 |
| 20260906172802 | 75 | 140 | 2.0 | 9.0 | 0.00 | 0.00 | 0.00 | 87 | 1016.8 |
| 20260906172627 | 75 | 198 | 6.0 | 6.0 | 0.00 | 0.00 | 0.00 | 87 | 1016.8 |
| 20260906172340 | 75 | 198 | 6.0 | 6.0 | 0.00 | 0.00 | 0.00 | 87 | 1016.8 |
| 20260906171803 | 75 | 52 | 0.0 | 5.0 | 0.00 | 0.00 | 0.00 | 88 | 1016.8 |
| 20260906171302 | 74 | 178 | 0.0 | 7.0 | 0.00 | 0.00 | 0.00 | 89 | 1016.8 |
| 20260906170302 | 74 | 59 | 0.0 | 6.0 | 0.00 | 0.00 | 0.00 | 89 | 1017.0 |
| 20260906165803 | 74 | 133 | 6.0 | 9.0 | 0.00 | 0.00 | 0.00 | 88 | 1017.0 |
| 20260906165317 | 74 | 156 | 0.0 | 6.0 | 0.00 | 0.00 | 0.00 | 89 | 1017.1 |
| 20260906153301 | 73 | 358 | 0.0 | 4.0 | 0.00 | 0.00 | 0.00 | 93 | 1017.1 |
| 20260906152814 | 73 | 35 | 0.0 | 5.0 | 0.00 | 0.00 | 0.00 | 93 | 1017.2 |
| 20260906151801 | 73 | 253 | 0.0 | 4.0 | 0.00 | 0.00 | 0.00 | 94 | 1017.5 |
| 20260906150826 | 72 | 67 | 0.0 | 7.0 | 0.00 | 0.00 | 0.00 | 94 | 1017.5 |
| 20260906150301 | 73 | 26 | 0.0 | 2.0 | 0.00 | 0.00 | 0.00 | 95 | 1017.5 |
| 20260906145801 | 72 | 32 | 3.0 | 4.0 | 0.00 | 0.00 | 0.00 | 95 | 1017.5 |
| 20260906144801 | 72 | 177 | 0.0 | 3.0 | 0.00 | 0.00 | 0.00 | 95 | 1017.5 |
| 20260906143301 | 73 | 167 | 0.0 | 4.0 | 0.00 | 0.00 | 0.00 | 94 | 1017.3 |
| 20260906141354 | 73 | 56 | 0.0 | 5.0 | 0.00 | 0.00 | 0.00 | 95 | 1017.1 |
| 20260906141301 | 73 | 56 | 0.0 | 5.0 | 0.00 | 0.00 | 0.00 | 95 | 1017.1 |
| 20260906140801 | 74 | 85 | 6.0 | 7.0 | 0.00 | 0.00 | 0.00 | 95 | 1017.2 |
| 20260906134340 | 72 | 101 | 0.0 | 5.0 | 0.00 | 0.00 | 0.00 | 99 | 1017.0 |
| 20260906134302 | 72 | 101 | 0.0 | 5.0 | 0.00 | 0.00 | 0.00 | 99 | 1017.0 |
| 20260906133331 | 71 | 94 | 0.0 | 5.0 | 0.00 | 0.00 | 0.00 | 99 | 1017.0 |
| 20260906131801 | 70 | 82 | 2.0 | 7.0 | 0.00 | 0.00 | 0.00 | 99 | 1016.9 |
| 20260906131301 | 70 | 74 | 0.0 | 3.0 | 0.00 | 0.00 | 0.00 | 99 | 1016.8 |
| 20260906130803 | 70 | 95 | 0.0 | 3.0 | 0.00 | 0.00 | 0.00 | 99 | 1016.7 |
| 20260906130347 | 70 | 32 | 0.0 | 0.0 | 0.00 | 0.00 | 0.00 | 99 | 1016.7 |
| 20260906130301 | 70 | 32 | 0.0 | 0.0 | 0.00 | 0.00 | 0.00 | 99 | 1016.7 |
| 20260906125833 | 69 | 32 | 0.0 | 0.0 | 0.00 | 0.00 | 0.00 | 99 | 1016.6 |
| 20260906125801 | 69 | 32 | 0.0 | 0.0 | 0.00 | 0.00 | 0.00 | 99 | 1016.6 |
| 20260906125342 | 69 | 32 | 0.0 | 0.0 | 0.00 | 0.00 | 0.00 | 99 | 1016.6 |
| 20260906125308 | 69 | 32 | 0.0 | 0.0 | 0.00 | 0.00 | 0.00 | 99 | 1016.6 |
| 20260906124302 | 69 | 32 | 0.0 | 0.0 | 0.00 | 0.00 | 0.00 | 99 | 1016.7 |
| 20260906123847 | 69 | 32 | 0.0 | 0.0 | 0.00 | 0.00 | 0.00 | 99 | 1016.6 |
| 20260906123801 | 69 | 32 | 0.0 | 0.0 | 0.00 | 0.00 | 0.00 | 99 | 1016.6 |
| 20260906123301 | 69 | 32 | 0.0 | 4.0 | 0.00 | 0.00 | 0.00 | 99 | 1016.6 |
| 20260906122838 | 68 | 99 | 3.0 | 5.0 | 0.00 | 0.00 | 0.00 | 99 | 1016.6 |
| 20260906122803 | 68 | 99 | 3.0 | 5.0 | 0.00 | 0.00 | 0.00 | 99 | 1016.6 |
| 20260906121332 | 68 | 57 | 0.0 | 0.0 | 0.00 | 0.00 | 0.00 | 99 | 1016.6 |
| 20260906121301 | 68 | 57 | 0.0 | 0.0 | 0.00 | 0.00 | 0.00 | 99 | 1016.6 |
| 20260906120301 | 68 | 57 | 0.0 | 0.0 | 0.00 | 0.00 | 0.00 | 99 | 1016.5 |
| 20260906120019 | 68 | 57 | 0.0 | 0.0 | 0.00 | 0.00 | 0.00 | 99 | 1016.4 |
| 20260906115946 | 68 | 57 | 0.0 | 0.0 | 0.00 | 0.00 | 0.00 | 99 | 1016.4 |
| 20260906115836 | 68 | 57 | 0.0 | 0.0 | 0.00 | 0.00 | 0.00 | 99 | 1016.4 |
| 20260906115804 | 68 | 57 | 0.0 | 0.0 | 0.00 | 0.00 | 0.00 | 99 | 1016.4 |
| 20260906114832 | 68 | 57 | 0.0 | 0.0 | 0.00 | 0.00 | 0.00 | 99 | 1016.4 |
| 20260906114801 | 68 | 57 | 0.0 | 0.0 | 0.00 | 0.00 | 0.00 | 99 | 1016.4 |
| 20260906114518 | 68 | 57 | 0.0 | 0.0 | 0.00 | 0.00 | 0.00 | 99 | 1016.4 |
| 20260906114301 | 68 | 57 | 0.0 | 0.0 | 0.00 | 0.00 | 0.00 | 99 | 1016.4 |
| 20260906113816 | 68 | 57 | 0.0 | 0.0 | 0.00 | 0.00 | 0.00 | 99 | 1016.3 |
| 20260906113423 | 68 | 57 | 0.0 | 0.0 | 0.00 | 0.00 | 0.00 | 99 | 1016.2 |
| 20260906113301 | 68 | 57 | 0.0 | 0.0 | 0.00 | 0.00 | 0.00 | 99 | 1016.2 |
| 20260906112801 | 68 | 57 | 0.0 | 0.0 | 0.00 | 0.00 | 0.00 | 99 | 1016.2 |
| 20260906111837 | 69 | 57 | 0.0 | 0.0 | 0.00 | 0.00 | 0.00 | 99 | 1016.2 |
| 20260906111801 | 69 | 57 | 0.0 | 0.0 | 0.00 | 0.00 | 0.00 | 99 | 1016.2 |
| 20260906111306 | 69 | 57 | 0.0 | 0.0 | 0.00 | 0.00 | 0.00 | 99 | 1016.2 |
| 20260906110357 | 69 | 57 | 0.0 | 0.0 | 0.00 | 0.00 | 0.00 | 99 | 1016.2 |
| 20260906105837 | 69 | 57 | 0.0 | 0.0 | 0.00 | 0.00 | 0.00 | 99 | 1016.2 |
| 20260906105801 | 69 | 57 | 0.0 | 0.0 | 0.00 | 0.00 | 0.00 | 99 | 1016.2 |
| 20260906105512 | 69 | 57 | 0.0 | 0.0 | 0.00 | 0.00 | 0.00 | 99 | 1016.0 |
| 20260906105333 | 69 | 57 | 0.0 | 0.0 | 0.00 | 0.00 | 0.00 | 99 | 1016.0 |
| 20260906105305 | 69 | 57 | 0.0 | 0.0 | 0.00 | 0.00 | 0.00 | 99 | 1016.0 |
| 20260906103301 | 69 | 57 | 0.0 | 0.0 | 0.00 | 0.00 | 0.00 | 99 | 1016.1 |
| 20260906103030 | 69 | 57 | 0.0 | 0.0 | 0.00 | 0.00 | 0.00 | 99 | 1016.1 |
| 20260906102801 | 69 | 57 | 0.0 | 0.0 | 0.00 | 0.00 | 0.00 | 99 | 1016.1 |
| 20260906102429 | 69 | 57 | 0.0 | 0.0 | 0.00 | 0.00 | 0.00 | 99 | 1016.1 |
| 20260906102334 | 69 | 57 | 0.0 | 0.0 | 0.00 | 0.00 | 0.00 | 99 | 1016.1 |
| 20260906102305 | 69 | 57 | 0.0 | 0.0 | 0.00 | 0.00 | 0.00 | 99 | 1016.1 |
| 20260906102020 | 69 | 57 | 0.0 | 0.0 | 0.00 | 0.00 | 0.00 | 99 | 1016.0 |
| 20260906101801 | 69 | 57 | 0.0 | 0.0 | 0.00 | 0.00 | 0.00 | 99 | 1016.0 |
| 20260906101301 | 69 | 57 | 0.0 | 0.0 | 0.00 | 0.00 | 0.00 | 99 | 1016.0 |
| 20260906100815 | 69 | 57 | 0.0 | 0.0 | 0.00 | 0.00 | 0.00 | 99 | 1015.9 |
| 20260906100333 | 69 | 57 | 0.0 | 0.0 | 0.00 | 0.00 | 0.00 | 99 | 1015.9 |
| 20260906100301 | 69 | 57 | 0.0 | 0.0 | 0.00 | 0.00 | 0.00 | 99 | 1015.9 |
| 20260906095801 | 69 | 57 | 0.0 | 0.0 | 0.00 | 0.00 | 0.00 | 99 | 1015.9 |
| 20260906094559 | 70 | 57 | 0.0 | 0.0 | 0.00 | 0.00 | 0.00 | 99 | 1015.6 |
| 20260906094301 | 70 | 57 | 0.0 | 0.0 | 0.00 | 0.00 | 0.00 | 99 | 1015.6 |
| 20260906093301 | 70 | 57 | 0.0 | 0.0 | 0.00 | 0.00 | 0.00 | 99 | 1015.5 |
| 20260906092804 | 70 | 57 | 0.0 | 0.0 | 0.00 | 0.00 | 0.00 | 99 | 1015.4 |
| 20260906092229 | 71 | 57 | 0.0 | 0.0 | 0.00 | 0.00 | 0.00 | 98 | 1015.3 |
| 20260906091801 | 71 | 57 | 0.0 | 0.0 | 0.00 | 0.00 | 0.00 | 98 | 1015.3 |
| 20260906091306 | 71 | 57 | 0.0 | 0.0 | 0.00 | 0.00 | 0.00 | 98 | 1015.2 |
| 20260906090354 | 71 | 87 | 0.0 | 3.0 | 0.00 | 0.00 | 0.00 | 98 | 1015.1 |
| 20260906090301 | 71 | 87 | 0.0 | 3.0 | 0.00 | 0.00 | 0.00 | 98 | 1015.1 |
| 20260906085654 | 71 | 81 | 0.0 | 0.0 | 0.00 | 0.00 | 0.00 | 97 | 1015.2 |
| 20260906085455 | 71 | 81 | 0.0 | 0.0 | 0.00 | 0.00 | 0.00 | 97 | 1015.2 |
| 20260906085423 | 71 | 81 | 0.0 | 0.0 | 0.00 | 0.00 | 0.00 | 97 | 1015.2 |
| 20260906085337 | 71 | 81 | 0.0 | 0.0 | 0.00 | 0.00 | 0.00 | 97 | 1015.2 |
| 20260906085302 | 71 | 81 | 0.0 | 0.0 | 0.00 | 0.00 | 0.00 | 97 | 1015.2 |
| 20260906085242 | 71 | 84 | 0.0 | 3.0 | 0.00 | 0.00 | 0.00 | 97 | 1015.2 |
| 20260906084801 | 71 | 84 | 0.0 | 3.0 | 0.00 | 0.00 | 0.00 | 97 | 1015.2 |
| 20260906084301 | 71 | 73 | 0.0 | 0.0 | 0.00 | 0.00 | 0.00 | 97 | 1015.2 |
| 20260906083811 | 71 | 67 | 0.0 | 4.0 | 0.00 | 0.00 | 0.00 | 97 | 1015.2 |
| 20260906083341 | 71 | 45 | 0.0 | 3.0 | 0.00 | 0.00 | 0.00 | 97 | 1015.1 |
| 20260906083302 | 71 | 45 | 0.0 | 3.0 | 0.00 | 0.00 | 0.00 | 97 | 1015.1 |
| 20260906082848 | 71 | 75 | 0.0 | 0.0 | 0.00 | 0.00 | 0.00 | 96 | 1015.1 |
| 20260906082803 | 71 | 75 | 0.0 | 0.0 | 0.00 | 0.00 | 0.00 | 96 | 1015.1 |
| 20260906082152 | 71 | 75 | 0.0 | 0.0 | 0.00 | 0.00 | 0.00 | 96 | 1014.8 |
| 20260906081836 | 71 | 75 | 0.0 | 0.0 | 0.00 | 0.00 | 0.00 | 96 | 1014.8 |
| 20260906081801 | 71 | 75 | 0.0 | 0.0 | 0.00 | 0.00 | 0.00 | 96 | 1014.8 |
| 20260906081302 | 71 | 75 | 0.0 | 0.0 | 0.00 | 0.00 | 0.00 | 96 | 1014.7 |
| 20260906080415 | 72 | 75 | 0.0 | 0.0 | 0.00 | 0.00 | 0.00 | 96 | 1014.7 |
| 20260906080344 | 72 | 75 | 0.0 | 0.0 | 0.00 | 0.00 | 0.00 | 96 | 1014.7 |
| 20260906080301 | 72 | 75 | 0.0 | 0.0 | 0.00 | 0.00 | 0.00 | 96 | 1014.7 |
| 20260906080224 | 72 | 75 | 0.0 | 0.0 | 0.00 | 0.00 | 0.00 | 96 | 1014.8 |
| 20260906075801 | 72 | 75 | 0.0 | 0.0 | 0.00 | 0.00 | 0.00 | 96 | 1014.8 |
| 20260906074801 | 72 | 75 | 0.0 | 4.0 | 0.00 | 0.00 | 0.00 | 95 | 1015.0 |
| 20260906074339 | 72 | 90 | 3.0 | 3.0 | 0.00 | 0.00 | 0.00 | 95 | 1014.8 |
| 20260906074306 | 72 | 90 | 3.0 | 3.0 | 0.00 | 0.00 | 0.00 | 95 | 1014.8 |
| 20260906072815 | 72 | 99 | 0.0 | 0.0 | 0.00 | 0.00 | 0.00 | 95 | 1015.1 |
| 20260906072305 | 73 | 99 | 0.0 | 0.0 | 0.00 | 0.00 | 0.00 | 95 | 1015.1 |
| 20260906071851 | 72 | 99 | 0.0 | 0.0 | 0.00 | 0.00 | 0.00 | 95 | 1015.2 |
| 20260906071811 | 72 | 99 | 0.0 | 0.0 | 0.00 | 0.00 | 0.00 | 95 | 1015.2 |
| 20260906064807 | 72 | 115 | 0.0 | 0.0 | 0.00 | 0.00 | 0.00 | 96 | 1015.5 |
| 20260906064604 | 72 | 115 | 0.0 | 0.0 | 0.00 | 0.00 | 0.00 | 96 | 1015.6 |
| 20260906064303 | 72 | 115 | 0.0 | 0.0 | 0.00 | 0.00 | 0.00 | 96 | 1015.6 |
| 20260906063837 | 72 | 115 | 0.0 | 0.0 | 0.00 | 0.00 | 0.00 | 96 | 1015.6 |
| 20260906063802 | 72 | 115 | 0.0 | 0.0 | 0.00 | 0.00 | 0.00 | 96 | 1015.6 |
| 20260906063103 | 73 | 115 | 0.0 | 0.0 | 0.00 | 0.00 | 0.00 | 96 | 1015.5 |
| 20260906062801 | 73 | 115 | 0.0 | 0.0 | 0.00 | 0.00 | 0.00 | 96 | 1015.5 |
| 20260906062305 | 73 | 115 | 0.0 | 0.0 | 0.00 | 0.00 | 0.00 | 96 | 1015.4 |
| 20260906061301 | 73 | 115 | 0.0 | 0.0 | 0.00 | 0.00 | 0.00 | 96 | 1015.5 |
| 20260906055801 | 73 | 115 | 0.0 | 0.0 | 0.00 | 0.00 | 0.00 | 96 | 1015.5 |
| 20260906054051 | 73 | 115 | 0.0 | 0.0 | 0.00 | 0.00 | 0.00 | 95 | 1015.4 |
| 20260906053852 | 73 | 115 | 0.0 | 0.0 | 0.00 | 0.00 | 0.00 | 95 | 1015.4 |
| 20260906053812 | 73 | 115 | 0.0 | 0.0 | 0.00 | 0.00 | 0.00 | 95 | 1015.4 |
| 20260906053600 | 73 | 115 | 0.0 | 0.0 | 0.00 | 0.00 | 0.00 | 95 | 1015.4 |
| 20260906053332 | 73 | 115 | 0.0 | 0.0 | 0.00 | 0.00 | 0.00 | 95 | 1015.4 |
| 20260906053301 | 73 | 115 | 0.0 | 0.0 | 0.00 | 0.00 | 0.00 | 95 | 1015.4 |
| 20260906053122 | 73 | 115 | 0.0 | 0.0 | 0.00 | 0.00 | 0.00 | 95 | 1015.5 |
| 20260906052833 | 73 | 115 | 0.0 | 0.0 | 0.00 | 0.00 | 0.00 | 95 | 1015.5 |
| 20260906052801 | 73 | 115 | 0.0 | 0.0 | 0.00 | 0.00 | 0.00 | 95 | 1015.5 |
| 20260906052507 | 73 | 115 | 0.0 | 0.0 | 0.00 | 0.00 | 0.00 | 95 | 1015.5 |
| 20260906052334 | 73 | 115 | 0.0 | 0.0 | 0.00 | 0.00 | 0.00 | 95 | 1015.5 |
| 20260906052305 | 73 | 115 | 0.0 | 0.0 | 0.00 | 0.00 | 0.00 | 95 | 1015.5 |
| 20260906052131 | 73 | 115 | 0.0 | 0.0 | 0.00 | 0.00 | 0.00 | 95 | 1015.4 |
| 20260906051801 | 73 | 115 | 0.0 | 0.0 | 0.00 | 0.00 | 0.00 | 95 | 1015.4 |
| 20260906051650 | 73 | 115 | 0.0 | 0.0 | 0.00 | 0.00 | 0.00 | 94 | 1015.5 |
| 20260906051335 | 73 | 115 | 0.0 | 0.0 | 0.00 | 0.00 | 0.00 | 94 | 1015.5 |
| 20260906051301 | 73 | 115 | 0.0 | 0.0 | 0.00 | 0.00 | 0.00 | 94 | 1015.5 |
| 20260906050408 | 73 | 115 | 0.0 | 0.0 | 0.00 | 0.00 | 0.00 | 94 | 1015.7 |
| 20260906050301 | 73 | 115 | 0.0 | 0.0 | 0.00 | 0.00 | 0.00 | 94 | 1015.7 |
| 20260906050216 | 73 | 115 | 0.0 | 0.0 | 0.00 | 0.00 | 0.00 | 93 | 1015.8 |
| 20260906045840 | 73 | 115 | 0.0 | 0.0 | 0.00 | 0.00 | 0.00 | 93 | 1015.8 |
| 20260906045806 | 73 | 115 | 0.0 | 0.0 | 0.00 | 0.00 | 0.00 | 93 | 1015.8 |
| 20260906045343 | 73 | 115 | 0.0 | 0.0 | 0.00 | 0.00 | 0.00 | 93 | 1015.8 |
| 20260906045305 | 73 | 115 | 0.0 | 0.0 | 0.00 | 0.00 | 0.00 | 93 | 1015.8 |
| 20260906044339 | 74 | 115 | 0.0 | 0.0 | 0.00 | 0.00 | 0.00 | 93 | 1015.8 |
| 20260906044301 | 74 | 115 | 0.0 | 0.0 | 0.00 | 0.00 | 0.00 | 93 | 1015.8 |
| 20260906043834 | 74 | 115 | 0.0 | 0.0 | 0.00 | 0.00 | 0.00 | 93 | 1015.8 |
| 20260906043801 | 74 | 115 | 0.0 | 0.0 | 0.00 | 0.00 | 0.00 | 93 | 1015.8 |
| 20260906043302 | 74 | 115 | 0.0 | 0.0 | 0.00 | 0.00 | 0.00 | 92 | 1015.8 |
| 20260906042801 | 74 | 115 | 0.0 | 0.0 | 0.00 | 0.00 | 0.00 | 92 | 1015.8 |
| 20260906042332 | 74 | 115 | 0.0 | 0.0 | 0.00 | 0.00 | 0.00 | 92 | 1015.8 |
| 20260906042302 | 74 | 115 | 0.0 | 0.0 | 0.00 | 0.00 | 0.00 | 92 | 1015.8 |
| 20260906042120 | 74 | 115 | 0.0 | 0.0 | 0.00 | 0.00 | 0.00 | 92 | 1015.9 |
| 20260906041801 | 74 | 115 | 0.0 | 0.0 | 0.00 | 0.00 | 0.00 | 92 | 1015.9 |
| 20260906041302 | 74 | 115 | 0.0 | 0.0 | 0.00 | 0.00 | 0.00 | 92 | 1015.9 |
| 20260906040805 | 74 | 115 | 0.0 | 0.0 | 0.00 | 0.00 | 0.00 | 92 | 1015.8 |
| 20260906040301 | 74 | 115 | 0.0 | 0.0 | 0.00 | 0.00 | 0.00 | 92 | 1015.8 |
| 20260906034805 | 74 | 40 | 0.0 | 6.0 | 0.00 | 0.00 | 0.00 | 92 | 1015.9 |
| 20260906034301 | 74 | 149 | 0.0 | 0.0 | 0.00 | 0.00 | 0.00 | 92 | 1015.9 |
| 20260906033807 | 74 | 149 | 0.0 | 0.0 | 0.00 | 0.00 | 0.00 | 92 | 1015.8 |
| 20260906033301 | 74 | 149 | 0.0 | 0.0 | 0.00 | 0.00 | 0.00 | 92 | 1015.8 |
| 20260906033139 | 74 | 149 | 0.0 | 0.0 | 0.00 | 0.00 | 0.00 | 91 | 1015.8 |
| 20260906032801 | 74 | 149 | 0.0 | 0.0 | 0.00 | 0.00 | 0.00 | 91 | 1015.8 |
| 20260906032717 | 74 | 149 | 0.0 | 0.0 | 0.00 | 0.00 | 0.00 | 91 | 1015.8 |
| 20260906032305 | 74 | 149 | 0.0 | 0.0 | 0.00 | 0.00 | 0.00 | 91 | 1015.8 |
| 20260906030853 | 75 | 149 | 0.0 | 0.0 | 0.00 | 0.00 | 0.00 | 90 | 1015.8 |
| 20260906030812 | 75 | 149 | 0.0 | 0.0 | 0.00 | 0.00 | 0.00 | 90 | 1015.8 |
| 20260906030622 | 75 | 149 | 0.0 | 0.0 | 0.00 | 0.00 | 0.00 | 90 | 1015.8 |
| 20260906030304 | 75 | 149 | 0.0 | 0.0 | 0.00 | 0.00 | 0.00 | 90 | 1015.8 |
| 20260906025803 | 75 | 149 | 0.0 | 0.0 | 0.00 | 0.00 | 0.00 | 90 | 1015.9 |
| 20260906024301 | 75 | 149 | 0.0 | 0.0 | 0.00 | 0.00 | 0.00 | 89 | 1015.9 |
| 20260906022801 | 75 | 149 | 0.0 | 0.0 | 0.00 | 0.00 | 0.00 | 88 | 1015.8 |
| 20260906022302 | 75 | 149 | 0.0 | 0.0 | 0.00 | 0.00 | 0.00 | 88 | 1015.6 |
| 20260906021801 | 76 | 149 | 0.0 | 0.0 | 0.00 | 0.00 | 0.00 | 88 | 1015.6 |
| 20260906020742 | 76 | 149 | 0.0 | 0.0 | 0.00 | 0.00 | 0.00 | 87 | 1015.1 |
| 20260906020344 | 76 | 149 | 0.0 | 0.0 | 0.00 | 0.00 | 0.00 | 87 | 1015.1 |
| 20260906020301 | 76 | 149 | 0.0 | 0.0 | 0.00 | 0.00 | 0.00 | 87 | 1015.1 |
| 20260906015714 | 76 | 171 | 0.0 | 0.0 | 0.00 | 0.00 | 0.00 | 87 | 1014.7 |
| 20260906015325 | 76 | 171 | 0.0 | 0.0 | 0.00 | 0.00 | 0.00 | 87 | 1014.7 |
| 20260906014558 | 77 | 147 | 0.0 | 3.0 | 0.00 | 0.00 | 0.00 | 86 | 1014.5 |
| 20260906014301 | 77 | 147 | 0.0 | 3.0 | 0.00 | 0.00 | 0.00 | 86 | 1014.5 |
| 20260906013556 | 77 | 191 | 0.0 | 5.0 | 0.00 | 0.00 | 0.00 | 85 | 1014.2 |
| 20260906013401 | 77 | 191 | 0.0 | 5.0 | 0.00 | 0.00 | 0.00 | 85 | 1014.2 |
| 20260906013307 | 77 | 191 | 0.0 | 5.0 | 0.00 | 0.00 | 0.00 | 85 | 1014.2 |
| 20260906013122 | 77 | 172 | 6.0 | 6.0 | 0.00 | 0.00 | 0.00 | 85 | 1014.1 |
| 20260906012801 | 77 | 172 | 6.0 | 6.0 | 0.00 | 0.00 | 0.00 | 85 | 1014.1 |
| 20260906012116 | 77 | 126 | 0.0 | 0.0 | 0.00 | 0.00 | 0.00 | 84 | 1013.9 |
| 20260906011801 | 77 | 126 | 0.0 | 0.0 | 0.00 | 0.00 | 0.00 | 84 | 1013.9 |
| 20260906011302 | 78 | 126 | 0.0 | 0.0 | 0.00 | 0.00 | 0.00 | 83 | 1013.7 |
| 20260906011037 | 78 | 126 | 0.0 | 2.0 | 0.00 | 0.00 | 0.00 | 82 | 1013.7 |
| 20260906010801 | 78 | 126 | 0.0 | 2.0 | 0.00 | 0.00 | 0.00 | 82 | 1013.7 |
| 20260906010649 | 78 | 210 | 2.0 | 4.0 | 0.00 | 0.00 | 0.00 | 82 | 1013.6 |
| 20260906010552 | 78 | 210 | 2.0 | 4.0 | 0.00 | 0.00 | 0.00 | 82 | 1013.6 |
| 20260906010333 | 78 | 210 | 2.0 | 4.0 | 0.00 | 0.00 | 0.00 | 82 | 1013.6 |
| 20260906010301 | 78 | 210 | 2.0 | 4.0 | 0.00 | 0.00 | 0.00 | 82 | 1013.6 |
| 20260906005801 | 78 | 168 | 0.0 | 7.0 | 0.00 | 0.00 | 0.00 | 81 | 1013.6 |
| 20260906005518 | 79 | 123 | 0.0 | 6.0 | 0.00 | 0.00 | 0.00 | 81 | 1013.6 |
| 20260906005338 | 79 | 123 | 0.0 | 6.0 | 0.00 | 0.00 | 0.00 | 81 | 1013.6 |
| 20260906005301 | 79 | 123 | 0.0 | 6.0 | 0.00 | 0.00 | 0.00 | 81 | 1013.6 |
| 20260906004056 | 79 | 118 | 3.0 | 8.0 | 0.00 | 0.00 | 0.00 | 79 | 1013.4 |
| 20260906003813 | 79 | 118 | 3.0 | 8.0 | 0.00 | 0.00 | 0.00 | 79 | 1013.4 |
| 20260906003638 | 80 | 187 | 5.0 | 11.0 | 0.00 | 0.00 | 0.00 | 78 | 1013.5 |
| 20260906003301 | 80 | 187 | 5.0 | 11.0 | 0.00 | 0.00 | 0.00 | 78 | 1013.5 |
| 20260906002801 | 80 | 165 | 0.0 | 0.0 | 0.00 | 0.00 | 0.00 | 78 | 1013.5 |
| 20260906002305 | 80 | 165 | 0.0 | 9.0 | 0.00 | 0.00 | 0.00 | 78 | 1013.4 |
| 20260906002040 | 80 | 172 | 0.0 | 3.0 | 0.00 | 0.00 | 0.00 | 77 | 1013.4 |
| 20260906001831 | 80 | 172 | 0.0 | 3.0 | 0.00 | 0.00 | 0.00 | 77 | 1013.4 |
| 20260906001801 | 80 | 172 | 0.0 | 3.0 | 0.00 | 0.00 | 0.00 | 77 | 1013.4 |
| 20260906001307 | 80 | 123 | 0.0 | 6.0 | 0.00 | 0.00 | 0.00 | 77 | 1013.3 |
| 20260906000538 | 81 | 137 | 3.0 | 7.0 | 0.00 | 0.00 | 0.00 | 76 | 1013.2 |
| 20260906000303 | 81 | 137 | 3.0 | 7.0 | 0.00 | 0.00 | 0.00 | 76 | 1013.2 |
| 20260905235539 | 81 | 170 | 0.0 | 4.0 | 0.00 | 0.00 | 0.00 | 75 | 1013.1 |
| 20260905235334 | 81 | 170 | 0.0 | 4.0 | 0.00 | 0.00 | 0.00 | 75 | 1013.1 |
| 20260905235306 | 81 | 170 | 0.0 | 4.0 | 0.00 | 0.00 | 0.00 | 75 | 1013.1 |
| 20260905234801 | 81 | 185 | 0.0 | 8.0 | 0.00 | 0.00 | 0.00 | 74 | 1013.2 |
| 20260905233114 | 83 | 82 | 0.0 | 0.0 | 0.00 | 0.00 | 0.00 | 70 | 1013.1 |
| 20260905232801 | 83 | 82 | 0.0 | 0.0 | 0.00 | 0.00 | 0.00 | 70 | 1013.1 |
| 20260905232305 | 83 | 82 | 0.0 | 4.0 | 0.00 | 0.00 | 0.00 | 70 | 1013.0 |
| 20260905231801 | 83 | 67 | 0.0 | 0.0 | 0.00 | 0.00 | 0.00 | 70 | 1012.8 |
| 20260905230812 | 83 | 77 | 1.0 | 7.0 | 0.00 | 0.00 | 0.00 | 68 | 1012.8 |
| 20260905225305 | 83 | 40 | 0.0 | 6.0 | 0.00 | 0.00 | 0.00 | 69 | 1012.7 |
| 20260905224801 | 83 | 102 | 4.0 | 7.0 | 0.00 | 0.00 | 0.00 | 69 | 1012.5 |
| 20260905223812 | 83 | 33 | 5.0 | 7.0 | 0.00 | 0.00 | 0.00 | 70 | 1012.5 |
| 20260905223301 | 82 | 88 | 4.0 | 6.0 | 0.00 | 0.00 | 0.00 | 70 | 1012.4 |
| 20260905223202 | 82 | 33 | 9.0 | 11.0 | 0.00 | 0.00 | 0.00 | 70 | 1012.3 |
| 20260905222801 | 82 | 33 | 9.0 | 11.0 | 0.00 | 0.00 | 0.00 | 70 | 1012.3 |
| 20260905222333 | 82 | 102 | 5.0 | 7.0 | 0.00 | 0.00 | 0.00 | 71 | 1012.4 |
| 20260905222305 | 82 | 102 | 5.0 | 7.0 | 0.00 | 0.00 | 0.00 | 71 | 1012.4 |
| 20260905221836 | 82 | 57 | 6.0 | 11.0 | 0.00 | 0.00 | 0.00 | 71 | 1012.4 |
| 20260905221801 | 82 | 57 | 6.0 | 11.0 | 0.00 | 0.00 | 0.00 | 71 | 1012.4 |
| 20260905221333 | 82 | 60 | 0.0 | 12.0 | 0.00 | 0.00 | 0.00 | 72 | 1012.4 |
| 20260905221301 | 82 | 60 | 0.0 | 12.0 | 0.00 | 0.00 | 0.00 | 72 | 1012.4 |
| 20260905220817 | 82 | 132 | 8.0 | 10.0 | 0.00 | 0.00 | 0.00 | 71 | 1012.5 |
| 20260905220301 | 82 | 102 | 0.0 | 8.0 | 0.00 | 0.00 | 0.00 | 73 | 1012.6 |
| 20260905215801 | 81 | 90 | 1.0 | 9.0 | 0.00 | 0.00 | 0.00 | 73 | 1012.6 |
| 20260905214856 | 81 | 15 | 3.0 | 8.0 | 0.00 | 0.00 | 0.00 | 73 | 1012.9 |
| 20260905214803 | 81 | 84 | 0.0 | 9.0 | 0.00 | 0.00 | 0.00 | 73 | 1012.8 |
| 20260905214301 | 81 | 15 | 3.0 | 8.0 | 0.00 | 0.00 | 0.00 | 73 | 1012.9 |
| 20260905213839 | 81 | 97 | 5.0 | 9.0 | 0.00 | 0.00 | 0.00 | 72 | 1012.8 |
| 20260905213804 | 81 | 97 | 5.0 | 9.0 | 0.00 | 0.00 | 0.00 | 72 | 1012.8 |
| 20260905213301 | 81 | 95 | 5.0 | 10.0 | 0.00 | 0.00 | 0.00 | 71 | 1013.0 |
| 20260905213005 | 83 | 52 | 9.0 | 9.0 | 0.00 | 0.00 | 0.00 | 69 | 1013.0 |
| 20260905212801 | 82 | 60 | 3.0 | 7.0 | 0.00 | 0.00 | 0.00 | 71 | 1013.0 |
| 20260905211801 | 83 | 52 | 9.0 | 9.0 | 0.00 | 0.00 | 0.00 | 69 | 1013.0 |
| 20260905211302 | 83 | 99 | 3.0 | 5.0 | 0.00 | 0.00 | 0.00 | 70 | 1013.1 |
| 20260905210801 | 82 | 21 | 5.0 | 11.0 | 0.00 | 0.00 | 0.00 | 70 | 1013.1 |
| 20260905210301 | 82 | 90 | 6.0 | 10.0 | 0.00 | 0.00 | 0.00 | 70 | 1013.0 |
| 20260905205801 | 82 | 91 | 3.0 | 12.0 | 0.00 | 0.00 | 0.00 | 71 | 1013.0 |
| 20260905205301 | 82 | 21 | 3.0 | 9.0 | 0.00 | 0.00 | 0.00 | 73 | 1012.9 |
| 20260905204806 | 82 | 63 | 10.0 | 16.0 | 0.00 | 0.00 | 0.00 | 72 | 1012.9 |